Terminal Aerodrome Forecast
Issued by NWS Twin Cities, MN

Home | Current Version | Previous Version | Graphics & Text | Print | Product List | Glossary On
Versions: 1 2 3 4 5 6 7 8 9 10 11 12 13 14 15 16 17 18 19 20 21 22 23 24 25 26 27 28 29
000
FTUS43 KMPX 230246 AAA
TAFMSP
TAF AMD
KMSP 230246Z 2303/2406 11003KT P6SM BKN250
     FM231200 18005KT P6SM SCT060 BKN150
     FM231700 19010KT P6SM BKN060 OVC120
     FM240100 13006KT P6SM OVC050=

USA.gov is the U.S. government's official web portal to all federal, state and local government web resources and services.